Weather History for EGHE - July, 2013

Change the Weather History Date:

Friday, July 26, 2013

  Actual Average Record
Temperature  
Mean Temperature 64 °F -  
Max Temperature 69 °F 64 °F 74 °F (2014)
Min Temperature 59 °F 58 °F 57 °F (2007)
Degree Days  
Heating Degree Days 1    
Growing Degree Days 14 (Base 50)    
Moisture  
Dew Point 60 °F    
Average Humidity 82    
Maximum Humidity 94    
Minimum Humidity 68    
Precipitation  
Precipitation 0.00 in - - ()
Sea Level Pressure  
Sea Level Pressure 29.88 in    
Wind  
Wind Speed 10 mph ()    
Max Wind Speed 16 mph    
Max Gust Speed -    
Visibility 8.1 miles    
Events Rain    
Averages and records for this station are not official NWS values.
T = Trace of Precipitation, MM = Missing Value Source: Averaged Metar Reports

Daily Weather History Graph

Daily Weather History Graph

Search for Another Location

Airport or City:

Trip Planner

Search our weather history database for the weather conditions in past years. The results will help you decide how hot, cold, wet, or windy it might be!

Date:

Astronomy

Jul. 26, 2013 Rise Set
Actual Time 5:46 AM BST 9:15 PM BST
Civil Twilight 5:06 AM BST 9:55 PM BST
Nautical Twilight 4:13 AM BST 10:48 PM BST
Astronomical Twilight 2:59 AM BST 12:00 AM BST
Moon 10:46 PM BST (7/26) 10:40 AM BST (7/26)
Length of Visible Light 16h 48m
Length of Day
15h 29m
Waning Gibbous, 82% of the Moon is Illuminated
Jul 26
Waning Gibbous
Jul 29
Last Quarter
Aug 6
New
Aug 14
First Quarter
Aug 21
Full

Hourly Weather History & Observations

Time (BST) Temp. Dew Point Humidity Pressure Visibility Wind Dir Wind Speed Gust Speed Precip Events Conditions
12:50 AM 61 °F 59 °F 91% 29.90 in 19 mi SSW 13.8 mph - -   Scattered Clouds
3:50 AM 60 °F 58 °F 91% 29.88 in 9 mi SSW 10.4 mph - -   Scattered Clouds
6:50 AM 61 °F 59 °F 91% 29.87 in 12 mi South 16.1 mph - - Rain Rain
6:50 AM 60.8 °F 59.0 °F 94% 29.86 in 6.2 mi South 16.1 mph - N/A   Scattered Clouds
7:20 AM 60.8 °F 59.0 °F 94% 29.89 in 6.2 mi SSW 11.5 mph - N/A   Partly Cloudy
7:50 AM 62.6 °F 59.0 °F 88% 29.86 in 6.2 mi SSW 12.7 mph - N/A   Partly Cloudy
8:20 AM 62.6 °F 59.0 °F 88% 29.86 in 6.2 mi SSW 10.4 mph - N/A   Partly Cloudy
8:50 AM 62.6 °F 60.8 °F 94% 29.89 in 6.2 mi South 11.5 mph - N/A   Partly Cloudy
9:20 AM 62.6 °F 59.0 °F 88% 29.89 in 6.2 mi SSW 11.5 mph - N/A   Partly Cloudy
9:50 AM 63 °F 59 °F 83% 29.89 in 13 mi SSW 12.7 mph - -   Scattered Clouds
10:50 AM 66.2 °F 60.8 °F 83% 29.89 in 6.2 mi South 9.2 mph - N/A   Partly Cloudy
11:20 AM 66.2 °F 60.8 °F 83% 29.89 in 6.2 mi South 10.4 mph - N/A   Partly Cloudy
11:50 AM 66.2 °F 60.8 °F 83% 29.89 in 6.2 mi South 11.5 mph - N/A   Partly Cloudy
12:20 PM 68.0 °F 60.8 °F 78% 29.89 in 6.2 mi South 12.7 mph - N/A   Partly Cloudy
12:50 PM 67 °F 61 °F 75% 29.89 in 19 mi South 8.1 mph - -  
12:50 PM 68.0 °F 60.8 °F 78% 29.89 in 6.2 mi South 8.1 mph - N/A   Partly Cloudy
1:20 PM 68.0 °F 60.8 °F 78% 29.89 in 6.2 mi South 11.5 mph - N/A   Partly Cloudy
1:50 PM 68.0 °F 60.8 °F 78% 29.89 in 6.2 mi South 9.2 mph - N/A   Partly Cloudy
2:50 PM 68.0 °F 59.0 °F 73% 29.89 in 6.2 mi South 9.2 mph - N/A   Partly Cloudy
3:20 PM 68.0 °F 59.0 °F 73% 29.89 in 6.2 mi South 10.4 mph - N/A   Partly Cloudy
3:50 PM 68 °F 60 °F 68% 29.88 in 22 mi South 9.2 mph - -  
3:50 PM 68.0 °F 60.8 °F 78% 29.86 in 6.2 mi South 9.2 mph - N/A   Partly Cloudy
4:20 PM 68.0 °F 59.0 °F 73% 29.89 in - South 10.4 mph - N/A   Partly Cloudy
4:50 PM 68.0 °F 60.8 °F 78% 29.89 in 6.2 mi South 11.5 mph - N/A   Partly Cloudy
5:20 PM 68.0 °F 59.0 °F 73% 29.89 in 6.2 mi South 9.2 mph - N/A   Partly Cloudy
5:50 PM 68.0 °F 60.8 °F 78% 29.86 in 6.2 mi South 9.2 mph - N/A   Partly Cloudy
6:20 PM 66.2 °F 59.0 °F 78% 29.86 in 6.2 mi South 10.4 mph - N/A   Partly Cloudy
6:50 PM 65 °F 59 °F 76% 29.88 in 25 mi South 9.2 mph - -   Scattered Clouds
6:50 PM 66.2 °F 59.0 °F 78% 29.86 in 6.2 mi South 9.2 mph - N/A   Partly Cloudy
9:50 PM 61 °F 59 °F 89% 29.88 in 17 mi South 8.1 mph - -